Weather History for Crockett, TX

Change the Weather History Date:

Tuesday, May 14, 2013

  Actual Average (KLFK) Record (KLFK)
Temperature  
Mean Temperature 70 °F 74 °F  
Max Temperature 84 °F 85 °F 93 °F (1911)
Min Temperature 57 °F 63 °F 46 °F (1971)
Degree Days  
Heating Degree Days 0 0  
Month to date heating degree days 1  
Since 1 July heating degree days 1914  
Cooling Degree Days 6 9  
Month to date cooling degree days 105  
Year to date cooling degree days 281  
Growing Degree Days 20 (Base 50)    
Moisture  
Dew Point 57 °F    
Average Humidity 66    
Maximum Humidity 100    
Minimum Humidity 37    
Precipitation  
Precipitation 0.00 in 0.15 in 2.10 in (1908)
Month to date precipitation 1.99  
Year to date precipitation 16.87  
Snow  
Snow 0.00 in - - ()
Month to date snowfall  
Since 1 July snowfall  
Snow Depth -    
Sea Level Pressure  
Sea Level Pressure 30.19 in    
Wind  
Wind Speed 5 mph (South)    
Max Wind Speed 17 mph    
Max Gust Speed 21 mph    
Visibility 9 miles    
Events Fog    
T = Trace of Precipitation, MM = Missing Value Source: NWS Daily Summary

Daily Weather History Graph

Daily Weather History Graph

Search for Another Location

Airport:

Trip Planner

Search our weather history database for the weather conditions in past years. The results will help you decide how hot, cold, wet, or windy it might be!

Date:

Astronomy

May. 14, 2013 Rise Set
Actual Time 6:26 AM CDT 8:10 PM CDT
Civil Twilight 5:59 AM CDT 8:36 PM CDT
Nautical Twilight 5:27 AM CDT 9:08 PM CDT
Astronomical Twilight 4:53 AM CDT 9:42 PM CDT
Moon 10:06 AM CDT (5/14) No Moon Set
Length of Visible Light 14h 37m
Length of Day
13h 44m
Waxing Crescent, 19% of the Moon is Illuminated
May 14
Waxing Crescent
May 17
First Quarter
May 24
Full
May 31
Last Quarter
Jun 8
New

Hourly Weather History & Observations

Time (CDT) Temp. Heat Index Dew Point Humidity Pressure Visibility Wind Dir Wind Speed Gust Speed Precip Events Conditions
12:15 AM 62.6 °F - 53.6 °F 72% 30.24 in 10.0 mi South 4.6 mph - N/A   Clear
12:35 AM 62.6 °F - 53.6 °F 72% 30.23 in 10.0 mi SSW 5.8 mph - N/A   Clear
12:55 AM 60.8 °F - 53.6 °F 77% 30.24 in 10.0 mi SSW 4.6 mph - N/A   Clear
1:15 AM 60.8 °F - 53.6 °F 77% 30.23 in 10.0 mi South 5.8 mph - N/A   Clear
1:35 AM 60.8 °F - 55.4 °F 82% 30.23 in 10.0 mi South 5.8 mph - N/A   Clear
1:55 AM 60.8 °F - 55.4 °F 82% 30.22 in 10.0 mi Calm Calm - N/A   Clear
2:15 AM 60.8 °F - 55.4 °F 82% 30.22 in 10.0 mi Calm Calm - N/A   Clear
2:35 AM 59.0 °F - 55.4 °F 88% 30.21 in 10.0 mi Calm Calm - N/A   Clear
2:55 AM 57.2 °F - 55.4 °F 94% 30.21 in 10.0 mi Calm Calm - N/A   Clear
3:15 AM 59.0 °F - 55.4 °F 88% 30.21 in 10.0 mi Calm Calm - N/A   Clear
3:35 AM 57.2 °F - 55.4 °F 94% 30.21 in 10.0 mi Calm Calm - N/A   Clear
3:55 AM 57.2 °F - 55.4 °F 94% 30.21 in 10.0 mi Calm Calm - N/A   Clear
4:15 AM 57.2 °F - 55.4 °F 94% 30.22 in 10.0 mi Calm Calm - N/A   Clear
4:35 AM 57.2 °F - 55.4 °F 94% 30.22 in 10.0 mi Calm Calm - N/A   Clear
4:55 AM 57.2 °F - 55.4 °F 94% 30.21 in 10.0 mi Calm Calm - N/A   Clear
5:15 AM 57.2 °F - 55.4 °F 94% 30.21 in 10.0 mi Calm Calm - N/A   Clear
5:35 AM 57.2 °F - 55.4 °F 94% 30.21 in 10.0 mi Calm Calm - N/A   Clear
5:55 AM 57.2 °F - 55.4 °F 94% 30.21 in 8.0 mi Calm Calm - N/A   Clear
6:15 AM 57.2 °F - 55.4 °F 94% 30.22 in 10.0 mi Calm Calm - N/A   Clear
6:35 AM 57.2 °F - 55.4 °F 94% 30.23 in 7.0 mi Calm Calm - N/A   Clear
6:55 AM 57.2 °F - 55.4 °F 94% 30.23 in 7.0 mi Calm Calm - N/A   Clear
7:15 AM 59.0 °F - 57.2 °F 94% 30.23 in 7.0 mi Calm Calm - N/A   Partly Cloudy
7:35 AM 60.8 °F - 57.2 °F 88% 30.24 in 8.0 mi South 5.8 mph - N/A   Mostly Cloudy
7:55 AM 60.8 °F - 59.0 °F 94% 30.24 in 5.0 mi South 8.1 mph - N/A   Overcast
8:15 AM 60.8 °F - 60.8 °F 100% 30.25 in 0.5 mi South 6.9 mph - N/A Fog Fog
8:35 AM 60.8 °F - 60.8 °F 100% 30.25 in 3.0 mi South 5.8 mph - N/A   Overcast
8:55 AM 62.6 °F - 60.8 °F 94% 30.25 in 8.0 mi South 5.8 mph - N/A   Scattered Clouds
9:15 AM 66.2 °F - 60.8 °F 83% 30.25 in 9.0 mi South 5.8 mph - N/A   Clear
9:35 AM 66.2 °F - 59.0 °F 78% 30.26 in 9.0 mi SSE 6.9 mph - N/A   Clear
9:55 AM 68.0 °F - 59.0 °F 73% 30.26 in 10.0 mi SSE 5.8 mph - N/A   Partly Cloudy
10:15 AM 71.6 °F - 60.8 °F 69% 30.26 in 10.0 mi South 6.9 mph - N/A   Partly Cloudy
10:35 AM 71.6 °F - 59.0 °F 64% 30.26 in 10.0 mi SSW 5.8 mph - N/A   Partly Cloudy
10:55 AM 71.6 °F - 59.0 °F 64% 30.26 in 10.0 mi Calm Calm - N/A   Partly Cloudy
11:15 AM 73.4 °F - 60.8 °F 65% 30.26 in 10.0 mi South 8.1 mph - N/A   Clear
11:35 AM 75.2 °F - 59.0 °F 57% 30.25 in 9.0 mi South 5.8 mph - N/A   Partly Cloudy
11:55 AM 77.0 °F - 59.0 °F 54% 30.25 in 10.0 mi South 6.9 mph - N/A   Clear
12:15 PM 78.8 °F - 59.0 °F 51% 30.24 in 10.0 mi SSW 5.8 mph - N/A   Clear
12:35 PM 78.8 °F - 57.2 °F 47% 30.23 in 10.0 mi South 6.9 mph - N/A   Clear
12:55 PM 80.6 °F 80.8 °F 57.2 °F 45% 30.22 in 10.0 mi South 8.1 mph - N/A   Partly Cloudy
1:15 PM 80.6 °F 80.8 °F 57.2 °F 45% 30.21 in 10.0 mi South 10.4 mph - N/A   Clear
1:35 PM 80.6 °F 80.5 °F 55.4 °F 42% 30.20 in 10.0 mi SSE 11.5 mph 16.1 mph N/A   Clear
1:55 PM 82.4 °F 81.7 °F 55.4 °F 39% 30.20 in 10.0 mi SSW 10.4 mph 18.4 mph N/A   Clear
2:15 PM 82.4 °F 81.4 °F 53.6 °F 37% 30.19 in 10.0 mi South 11.5 mph 17.3 mph N/A   Clear
2:35 PM 82.4 °F 81.7 °F 55.4 °F 39% 30.19 in 10.0 mi South 5.8 mph - N/A   Scattered Clouds
2:55 PM 82.4 °F 81.7 °F 55.4 °F 39% 30.18 in 10.0 mi South 10.4 mph - N/A   Partly Cloudy
3:15 PM 82.4 °F 81.7 °F 55.4 °F 39% 30.17 in 10.0 mi South 9.2 mph 17.3 mph N/A   Clear
3:35 PM 84.2 °F 83.0 °F 55.4 °F 37% 30.16 in 10.0 mi South 10.4 mph 16.1 mph N/A   Clear
3:55 PM 84.2 °F 83.0 °F 55.4 °F 37% 30.16 in 10.0 mi South 17.3 mph - N/A   Clear
4:15 PM 82.4 °F 81.7 °F 55.4 °F 39% 30.15 in 10.0 mi South 10.4 mph 20.7 mph N/A   Clear
4:35 PM 84.2 °F 83.5 °F 57.2 °F 40% 30.14 in 10.0 mi SSW 8.1 mph 17.3 mph N/A   Clear
4:55 PM 84.2 °F 83.5 °F 57.2 °F 40% 30.13 in 10.0 mi South 11.5 mph 18.4 mph N/A   Clear
5:15 PM 84.2 °F 83.0 °F 55.4 °F 37% 30.12 in 10.0 mi South 11.5 mph - N/A   Clear
5:35 PM 84.2 °F 83.0 °F 55.4 °F 37% 30.12 in 10.0 mi South 11.5 mph 18.4 mph N/A   Clear
5:55 PM 82.4 °F 81.7 °F 55.4 °F 39% 30.11 in 9.0 mi SSW 12.7 mph 17.3 mph N/A   Clear
6:15 PM 82.4 °F 81.4 °F 53.6 °F 37% 30.10 in 9.0 mi South 8.1 mph - N/A   Clear
6:35 PM 82.4 °F 81.4 °F 53.6 °F 37% 30.10 in 10.0 mi SSE 9.2 mph - N/A   Clear
6:55 PM 80.6 °F 80.5 °F 55.4 °F 42% 30.10 in 10.0 mi SE 8.1 mph - N/A   Clear
7:15 PM 80.6 °F 80.5 °F 55.4 °F 42% 30.09 in 10.0 mi SSE 8.1 mph - N/A   Clear
7:35 PM 78.8 °F - 57.2 °F 47% 30.09 in 10.0 mi SSE 8.1 mph - N/A   Clear
7:55 PM 77.0 °F - 57.2 °F 50% 30.09 in 10.0 mi SE 3.5 mph - N/A   Clear
8:15 PM 75.2 °F - 57.2 °F 53% 30.09 in 10.0 mi SSE 5.8 mph - N/A   Clear
8:35 PM 75.2 °F - 55.4 °F 50% 30.10 in 10.0 mi SSE 6.9 mph - N/A   Clear
8:55 PM 75.2 °F - 55.4 °F 50% 30.09 in 10.0 mi SSE 8.1 mph - N/A   Clear
9:15 PM 73.4 °F - 57.2 °F 57% 30.10 in 10.0 mi SSE 8.1 mph - N/A   Clear
9:35 PM 73.4 °F - 57.2 °F 57% 30.10 in 10.0 mi SSE 8.1 mph - N/A   Clear
9:55 PM 71.6 °F - 57.2 °F 60% 30.11 in 10.0 mi SSE 10.4 mph - N/A   Clear
10:15 PM 71.6 °F - 57.2 °F 60% 30.13 in 10.0 mi SSE 9.2 mph - N/A   Clear
10:35 PM 71.6 °F - 57.2 °F 60% 30.13 in 10.0 mi SSE 9.2 mph - N/A   Clear
10:55 PM 71.6 °F - 57.2 °F 60% 30.14 in 10.0 mi SSE 8.1 mph - N/A   Clear
11:15 PM 69.8 °F - 57.2 °F 64% 30.14 in 10.0 mi SSE 8.1 mph - N/A   Clear
11:35 PM 69.8 °F - 57.2 °F 64% 30.15 in 10.0 mi SSE 6.9 mph - N/A   Clear
11:55 PM 68.0 °F - 59.0 °F 73% 30.16 in 10.0 mi South 8.1 mph - N/A   Clear